loading
|

THOR ABLESTAR DEB, 131

Orbit data source: Space-Track

THOR ABLESTAR DEB, 131 is space debris in LEO originally from a launch on Thu, 29 Jun 1961 UTC launched from the Air Force Eastern Test Range (AFETR). Debris objects in space refer to the collection of defunct objects orbiting the Earth. Examples of debris include non-operational satellites, rocket bodies, and fragments generated from explosions, collisions, or faulty payload assembly.

Loading next visibility...
Loading greatness...
THOR ABLESTAR DEB details
Identifier
131, 1961-015R
Orbit
LEO
Last TLE update1 day ago
Origin
Flag of USUSAF SSD (US)
ManufacturerUnknown
Mission statusUnknown
MissionUnknown
Bus & MotorUnknown
MassUnknown
Launch date (UTC)
1961-06-29 (63 years ago)
Launch vehicleUnknown
Launch site
Air Force Eastern Test Range (AFETR)
Object type
Payload
Rocket body
Debris
Radar Cross SectionMedium (>0.1 m² and <1 m²)

Expand to show TLE details & history

TLE from 1 day ago
0 THOR ABLESTAR DEB
1 00131U 61015R   24250.47511260  .00000545  00000-0  40285-3 0  9993
2 00131  66.7338 280.6189 0079215 167.1119 193.2015 14.01334546212551
Epoch: 2024-09-06T11:24Z
Definitive object data (Epoch: 2024-09-06T11:24:09.728Z)
Latitude-0.00002°
Longitude123.53124°
Altitude947.336 km
Speed7.35 km/s
True Right ascension18h 42m 28s
True Declination0° 00' 00"
Sunlit
Object was in daylight at TLE epoch
Predictive object data (real-time)
Latitude-19.20378°
Longitude111.77384°
Altitude952.816 km
Speed7.346 km/s
Apparent Right ascension19h 41m 02s
Apparent Declination-32° 51' 49"
Sunlit
Object is in daylight
Predictive observer data (real-time)
Local Sidereal Time10:16:47
Azimuth89.673° E
Elevation-58.134°
Doppler factor1
Orbital elements
Apogee945.126 km
Perigee830.015 km
Semi-major axis7,265.707 km
Eccentricity0.0079215
Inclination66.7338°
RAAN280.6189°
Arg. of periapsis167.1119°
True anomaly192.99617°
Mean anomaly193.2015°
Eccentric anomaly193.09864°
Mean motion3.5045 °/min
BSTAR0.00040285
Period102.73 mins
No data available

THOR ABLESTAR DEB Visibility forecast

Observer location: 39.9160978°, -105.1181434

THOR ABLESTAR DEB is not visible in the next 10 days
Span
Click to sort rows by Start time (UTC) header in descending order
Start Az.
Max El. time (UTC)
Max El. Az.
Max El.
End time (UTC)
End Az.